Regional Weather Roundup
Issued by NWS

Home | Current Version | Previous Version | Text Only | Print | Product List | Glossary Off
Versions: 1 2 3 4 5 6 7 8 9 10 11 12 13 14 15 16 17 18 19 20 21 22 23 24 25 26 27 28 29 30 31 32 33 34 35 36 37 38 39 40 41 42 43 44 45 46 47 48 49 50

000
ASUS45 KSLC 251510
RWRUT

UTAH REGIONAL WEATHER ROUNDUP
NATIONAL WEATHER SERVICE SALT LAKE CITY UT
800 AM MST SUN JAN 25 2015

UTZ001>011-023>025-251600-

NORTHERN UTAH

CITY           SKY/WX    TMP DP  RH WIND       PRES   REMARKS
BRIGHAM CITY   CLOUDY    34  30  84 CALM      30.47R
HILL AFB       PTCLDY    34  25  69 E8        30.45S WCI  27
LOGAN          CLOUDY    32  30  92 CALM      30.45R FOG
OGDEN          MOCLDY    32  28  85 CALM      30.45S
PROVO AIRPORT  MOCLDY    34  27  75 CALM      30.48R
SALT LAKE CITY MOCLDY    31  27  85 S3        30.46S
VERNAL         CLEAR     17  12  80 VRB3      30.40R
WENDOVER       CLEAR     27  25  93 SW5       30.48S WCI  21
HEBER CITY     CLOUDY    30  27  86 SE5       30.46S WCI  25
WEST JORDAN    PTCLDY    34  28  80 CALM      30.47R

$$

UTZ012>022-026-027-251600-

SOUTHERN/CENTRAL UTAH

CITY           SKY/WX    TMP DP  RH WIND       PRES   REMARKS
BLANDING       CLEAR     30  21  68 NE3       30.39R
BRYCE CANYON   PTCLDY    21  20  96 W8        30.40S WCI  11
CEDAR CITY     PTCLDY    24  21  88 NE6       30.40R WCI  17
DELTA          CLEAR     30  25  83 N6        30.45R WCI  24
MILFORD        CLEAR     26  21  81 N3        30.43R
MOAB/CYNLANDS  CLEAR     20  17  88 CALM      30.39R
PRICE          CLEAR     29  19  66 E10       30.34R WCI  20
ST GEORGE      SUNNY     37  25  60 SE5       30.36R WCI  34
KANAB          CLEAR     30  23  74 NE9       30.39R WCI  22

$$

REGIONAL REPORTS     COLORADO/ARIZONA

CITY           SKY/WX    TMP DP  RH WIND       PRES   REMARKS
CRAIG, CO      CLOUDY    15  11  83 CALM      30.37S
GRAND JUNCTION PTCLDY    24  17  74 E3        30.39R
RIFLE          CLOUDY    22  17  81 CALM      30.41S
MONTROSE       MOCLDY    18  13  80 SE5       30.41S WCI  11
CORTEZ         CLEAR     18  14  84 NE3       30.32R
PAGE, AZ       NOT AVBL
GRAND CANYON   PTCLDY    36  22  56 NE12      30.35R WCI  28
KINGMAN        CLEAR     41  21  44 E6        30.26R
FLAGSTAFF      CLEAR     38  18  44 E14       30.32R WCI  30

$$

REGIONAL REPORTS    NEVADA/IDAHO/WYOMING

CITY           SKY/WX    TMP DP  RH WIND       PRES   REMARKS
LAS VEGAS, NV  CLEAR     46  25  43 S7        30.25R
ELY            CLEAR     20  18  92 S10       30.45R WCI   9
ELKO           CLEAR     23  21  92 NE5       30.45S WCI  17
POCATELLO, ID  CLOUDY    30  29  96 NE8       30.45R FOG     WCI  22
BURLEY         PTCLDY    30  27  88 CALM      30.40F
EVANSTON, WY   PTCLDY    28  26  92 SW14      30.41F WCI  17
ROCK SPRINGS   CLEAR     32  27  81 W28G33    30.32R WCI  18
KEMMERER       CLOUDY    32  30  93 W13       30.40R WCI  22

$$



USA.gov is the U.S. government's official web portal to all federal, state and local government web resources and services.